Location: Lane
(33.5226°N, 79.8788°W)
Time: 00:53:19
(UTC+00:00)

SR - Pass Details

Date: 02 October 2022
Orbit: 577 x 875 km, 66.7° (Epoch: 27 November)

Event Time Altitude Azimuth Distance (km) Brightness Sun altitude
Rises 12:49:52 0° 314° (NW) 3,220 ? 18.6°
Reaches altitude 10° 12:53:08 10° 295° (WNW) 2,226 ? 19.3°
Maximum altitude 12:56:15 17° 256° (WSW) 1,755 ? 19.9°
Drops below altitude 10° 12:59:13 10° 218° (SW) 2,095 ? 20.5°
Sets 13:02:10 0° 197° (SSW) 2,944 ? 21.0°
